Miscellaneous Local Product
Issued by NWS Hastings, NE

Home | Current Version | Previous Version | Graphics & Text | Print | Product List | Glossary On
Versions: 1 2 3 4 5 6 7 8 9 10 11 12 13 14 15 16 17 18 19 20 21 22 23 24 25 26 27 28 29 30 31 32 33 34 35 36 37 38 39 40 41 42 43 44 45 46 47 48 49 50
000
AXUS43 KGID 050302
MISGRI

GID CWA HOURLY WEATHER ROUNDUP
NATIONAL WEATHER SERVICE HASTINGS NE
1000 PM CDT SAT JUL 04 2015

NOTE: "FAIR" INDICATES FEW OR NO CLOUDS BELOW 12,000 FEET WITH NO
SIGNIFICANT WEATHER AND/OR OBSTRUCTIONS TO VISIBILITY.

...SOUTH CENTRAL NEBRASKA...

CITY           SKY/WX    TMP DP  RH WIND       PRES   REMARKS
GRAND ISLAND   MOCLDY    75  63  66 SE10      29.90R
HASTINGS       PTCLDY    76  63  64 SE12      29.90R
KEARNEY        PTCLDY    75  64  69 SE10      29.89R
ORD            CLOUDY    77  65  66 SE10      29.85S
YORK           CLEAR     73  66  78 SE9       29.90S
AURORA         PTCLDY    73  66  78 SE10      29.90R
LEXINGTON      CLEAR     79  66  64 SE14      29.87S
HOLDREGE       CLEAR     76  64  65 SE9       29.89R
HEBRON         CLEAR     75  64  68 SE7       29.90S

...NEBRASKA PANHANDLE...

CITY           SKY/WX    TMP DP  RH WIND       PRES   REMARKS
CHADRON        CLEAR     76  65  68 W5        29.80R
ALLIANCE       CLEAR     72  63  73 SE8       29.85R
SCOTTSBLUFF    PTCLDY    71  65  81 NE6       29.86R
SIDNEY         CLOUDY    82  56  40 VRB3      29.93R

...WESTERN AND NORTH CENTRAL NEBRASKA...

CITY           SKY/WX    TMP DP  RH WIND       PRES   REMARKS
VALENTINE      CLOUDY    83  65  54 S15G32    29.80R
AINSWORTH      CLOUDY    81  65  59 S14       29.83R
ONEILL         MOCLDY    77  68  72 SE12      29.85F
BROKEN BOW     PTCLDY    77  65  66 SE8       29.87R
IMPERIAL       CLOUDY    84  59  42 S15       29.85R
NORTH PLATTE   CLEAR     79  64  60 SE9       29.84S
MCCOOK         CLOUDY    83  62  49 SE16      29.85R

...EASTERN NEBRASKA...

CITY           SKY/WX    TMP DP  RH WIND       PRES   REMARKS
NORFOLK        CLEAR     72  65  78 SE8       29.89R
SO SIOUX CITY  CLEAR     73  63  70 SE8       29.90R
TEKAMAH        CLEAR     71  62  73 SE7       29.91R
COLUMBUS       CLEAR     73  63  68 SE5       29.87S
ALBION         PTCLDY    72  64  74 SE8       29.90R
OMAHA EPPLEY   PTCLDY    73  63  70 S8        29.92R
OFFUTT AFB     CLEAR     69  64  81 SE6       29.92R
MILLARD        CLEAR     73  64  74 SE5       29.92R
LINCOLN        CLEAR     76  65  68 SE10      29.92R
NEBRASKA CITY  CLEAR     69  61  74 S5        29.94R
BEATRICE       CLEAR     75  64  67 SE7       29.93R
FALLS CITY     CLEAR     71  65  81 SE6       29.94R

...NORTHERN KANSAS...

CITY           SKY/WX    TMP DP  RH WIND       PRES   REMARKS
GOODLAND       MOCLDY    81  62  52 SE16G25   29.90R
NORTON         CLEAR     79  59  50 SE9       29.88R
PHILLIPSBURG   CLEAR     82  64  54 SE8       29.89R
SMITH CENTER   CLEAR     79  63  57 SE10      29.90R
HAYS           MOCLDY    81  63  54 SE10      29.90R
RUSSELL        MOCLDY    80  64  58 SE13      29.89R
CONCORDIA      CLEAR     75  63  66 SE8       29.92R
SALINA         CLEAR     81  61  50 SE8       29.90R
TOPEKA         CLEAR     73  64  73 SE7       29.95R



USA.gov is the U.S. government's official web portal to all federal, state and local government web resources and services.